Location: ???????
(55.4362°N, 38.1183°E)
Time: 03:38:08
(UTC+00:00)

FALCON 9 DEB - Pass Details

Date: 17 June 2021
Orbit: 363 x 379 km, 53.0° (Epoch: 26 July)

Event Time Altitude Azimuth Distance (km) Brightness Sun altitude
Exits shadow 20:19:02 10° 200° (SSW) 1,408 5.2 -9.8°
Maximum altitude 20:21:28 21° 150° (SSE) 947 4.2 -9.9°
Drops below altitude 10° 20:23:55 10° 99° (E) 1,421 5.5 -10.0°
Sets 20:26:17 0° 83° (E) 2,278 6.7 -10.0°
